Time,TemperatureF,DewpointF,PressureIn,WindDirection,WindDirectionDegrees,WindSpeedMPH,WindSpeedGustMPH,Humidity,HourlyPrecipIn,Conditions,Clouds,dailyrainin,SoftwareType,DateUTC
2013-06-16 00:02:00,68.0,55.0,30.01,East,94,0.0,-999.0,64,-99.99,,,-99.99,,2013-06-16 04:02:00,
2013-06-16 00:12:00,68.0,56.0,30.01,East,94,0.0,-999.0,66,-99.99,,,-99.99,,2013-06-16 04:12:00,
2013-06-16 00:23:00,68.0,56.0,30.01,East,94,0.0,-999.0,66,-99.99,,,-99.99,,2013-06-16 04:23:00,
2013-06-16 00:34:00,67.0,56.0,30.01,East,94,0.0,-999.0,67,-99.99,,,-99.99,,2013-06-16 04:34:00,
2013-06-16 00:43:00,67.0,56.0,30.01,East,94,0.0,-999.0,67,-99.99,,,-99.99,,2013-06-16 04:43:00,
2013-06-16 00:53:00,67.0,56.0,30.01,East,94,0.0,-999.0,67,-99.99,,,-99.99,,2013-06-16 04:53:00,
2013-06-16 01:02:00,67.0,55.0,30.01,East,94,0.0,-999.0,66,-99.99,,,-99.99,,2013-06-16 05:02:00,
2013-06-16 01:12:00,67.0,56.0,30.01,East,94,0.0,-999.0,68,-99.99,,,-99.99,,2013-06-16 05:12:00,
2013-06-16 01:22:00,66.0,56.0,30.02,East,94,0.0,-999.0,70,-99.99,,,-99.99,,2013-06-16 05:22:00,
2013-06-16 01:34:00,65.0,55.0,30.01,East,94,0.0,-999.0,70,-99.99,,,-99.99,,2013-06-16 05:34:00,
2013-06-16 01:43:00,65.0,56.0,30.01,East,94,0.0,-999.0,72,-99.99,,,-99.99,,2013-06-16 05:43:00,
2013-06-16 01:52:00,65.0,55.0,30.01,East,94,0.0,-999.0,71,-99.99,,,-99.99,,2013-06-16 05:52:00,
2013-06-16 02:01:00,65.0,56.0,30.01,East,94,0.0,-999.0,72,-99.99,,,-99.99,,2013-06-16 06:01:00,
2013-06-16 02:12:00,65.0,55.0,30.00,East,94,0.0,-999.0,71,-99.99,,,-99.99,,2013-06-16 06:12:00,
2013-06-16 02:23:00,65.0,55.0,30.01,East,94,0.0,-999.0,70,-99.99,,,-99.99,,2013-06-16 06:23:00,
2013-06-16 02:33:00,65.0,56.0,30.01,East,94,0.0,-999.0,72,-99.99,,,-99.99,,2013-06-16 06:33:00,
2013-06-16 02:43:00,65.0,56.0,30.01,East,94,0.0,-999.0,74,-99.99,,,-99.99,,2013-06-16 06:43:00,
2013-06-16 02:52:00,65.0,56.0,30.01,East,94,0.0,-999.0,74,-99.99,,,-99.99,,2013-06-16 06:52:00,
2013-06-16 03:01:00,64.0,56.0,30.01,East,94,0.0,-999.0,76,-99.99,,,-99.99,,2013-06-16 07:01:00,
2013-06-16 03:12:00,63.0,55.0,30.01,East,94,0.0,-999.0,76,-99.99,,,-99.99,,2013-06-16 07:12:00,
2013-06-16 03:23:00,63.0,55.0,30.01,East,94,0.0,-999.0,76,-99.99,,,-99.99,,2013-06-16 07:23:00,
2013-06-16 03:33:00,63.0,55.0,30.01,East,94,0.0,-999.0,76,-99.99,,,-99.99,,2013-06-16 07:33:00,
2013-06-16 03:43:00,63.0,56.0,30.00,East,94,0.0,-999.0,77,-99.99,,,-99.99,,2013-06-16 07:43:00,
2013-06-16 03:53:00,64.0,56.0,30.00,East,94,0.0,-999.0,76,-99.99,,,-99.99,,2013-06-16 07:53:00,
2013-06-16 04:02:00,64.0,57.0,30.01,East,94,0.0,-999.0,78,-99.99,,,-99.99,,2013-06-16 08:02:00,
2013-06-16 04:12:00,64.0,57.0,30.02,East,94,0.0,-999.0,78,-99.99,,,-99.99,,2013-06-16 08:12:00,
2013-06-16 04:22:00,64.0,57.0,30.00,East,94,0.0,-999.0,78,-99.99,,,-99.99,,2013-06-16 08:22:00,
2013-06-16 04:33:00,64.0,57.0,30.00,East,94,0.0,-999.0,77,-99.99,,,-99.99,,2013-06-16 08:33:00,
2013-06-16 04:43:00,64.0,57.0,30.01,East,94,0.0,-999.0,78,-99.99,,,-99.99,,2013-06-16 08:43:00,
2013-06-16 04:54:00,64.0,57.0,30.01,East,94,0.0,-999.0,77,-99.99,,,-99.99,,2013-06-16 08:54:00,
2013-06-16 05:02:00,64.0,57.0,30.01,East,94,0.0,-999.0,77,-99.99,,,-99.99,,2013-06-16 09:02:00,
2013-06-16 05:11:00,64.0,56.0,30.01,East,94,0.0,-999.0,75,-99.99,,,-99.99,,2013-06-16 09:11:00,
2013-06-16 05:22:00,64.0,56.0,30.00,East,94,0.0,-999.0,75,-99.99,,,-99.99,,2013-06-16 09:22:00,
2013-06-16 05:33:00,64.0,57.0,29.99,East,94,0.0,-999.0,78,-99.99,,,-99.99,,2013-06-16 09:33:00,
2013-06-16 05:43:00,64.0,57.0,29.99,West,271,0.0,-999.0,78,-99.99,,,-99.99,,2013-06-16 09:43:00,
2013-06-16 05:52:00,64.0,57.0,29.99,West,271,0.0,-999.0,77,-99.99,,,-99.99,,2013-06-16 09:52:00,
2013-06-16 06:02:00,64.0,57.0,30.00,North,9,0.0,-999.0,78,-99.99,,,-99.99,,2013-06-16 10:02:00,
2013-06-16 06:12:00,64.0,57.0,30.00,North,9,0.0,-999.0,78,-99.99,,,-99.99,,2013-06-16 10:12:00,
2013-06-16 06:22:00,63.0,56.0,29.99,South,171,0.0,-999.0,79,-99.99,,,-99.99,,2013-06-16 10:22:00,
2013-06-16 06:33:00,63.0,56.0,30.00,South,171,0.0,-999.0,78,-99.99,,,-99.99,,2013-06-16 10:33:00,
2013-06-16 06:43:00,63.0,56.0,30.00,South,171,0.0,-999.0,78,-99.99,,,-99.99,,2013-06-16 10:43:00,
2013-06-16 06:53:00,64.0,57.0,30.00,South,171,0.0,-999.0,79,-99.99,,,-99.99,,2013-06-16 10:53:00,
2013-06-16 07:02:00,64.0,57.0,30.00,South,171,0.0,-999.0,79,-99.99,,,-99.99,,2013-06-16 11:02:00,
2013-06-16 07:12:00,64.0,57.0,30.00,South,171,0.0,-999.0,79,-99.99,,,-99.99,,2013-06-16 11:12:00,
2013-06-16 07:22:00,64.0,58.0,30.00,NW,310,0.0,-999.0,81,-99.99,,,-99.99,,2013-06-16 11:22:00,
2013-06-16 07:34:00,64.0,58.0,29.99,WSW,244,0.0,-999.0,80,-99.99,,,-99.99,,2013-06-16 11:34:00,
2013-06-16 07:43:00,65.0,58.0,29.99,North,351,0.0,-999.0,77,-99.99,,,-99.99,,2013-06-16 11:43:00,
2013-06-16 07:52:00,65.0,55.0,29.99,North,355,0.0,-999.0,71,-99.99,,,-99.99,,2013-06-16 11:52:00,
2013-06-16 08:02:00,65.0,55.0,29.99,North,355,0.0,-999.0,71,-99.99,,,-99.99,,2013-06-16 12:02:00,
2013-06-16 08:12:00,65.0,57.0,29.99,North,351,0.0,-999.0,75,-99.99,,,-99.99,,2013-06-16 12:12:00,
2013-06-16 08:22:00,65.0,57.0,29.98,North,355,0.0,-999.0,75,-99.99,,,-99.99,,2013-06-16 12:22:00,
2013-06-16 08:33:00,65.0,56.0,29.98,North,355,0.0,-999.0,72,-99.99,,,-99.99,,2013-06-16 12:33:00,
2013-06-16 08:43:00,65.0,55.0,29.98,SW,232,0.0,-999.0,70,-99.99,,,-99.99,,2013-06-16 12:43:00,
2013-06-16 08:53:00,66.0,56.0,29.98,SW,232,0.0,-999.0,70,-99.99,,,-99.99,,2013-06-16 12:53:00,
2013-06-16 09:01:00,66.0,57.0,29.98,SW,232,0.0,-999.0,72,-99.99,,,-99.99,,2013-06-16 13:01:00,
2013-06-16 09:12:00,66.0,58.0,29.98,ENE,77,0.0,-999.0,75,-99.99,,,-99.99,,2013-06-16 13:12:00,
2013-06-16 09:22:00,66.0,58.0,29.97,ENE,77,0.0,-999.0,76,-99.99,,,-99.99,,2013-06-16 13:22:00,
2013-06-16 09:34:00,66.0,58.0,29.96,ENE,77,0.0,-999.0,76,-99.99,,,-99.99,,2013-06-16 13:34:00,
2013-06-16 09:43:00,67.0,59.0,29.96,ENE,77,0.0,-999.0,76,-99.99,,,-99.99,,2013-06-16 13:43:00,
2013-06-16 09:53:00,67.0,59.0,29.96,ENE,77,0.0,-999.0,76,-99.99,,,-99.99,,2013-06-16 13:53:00,
2013-06-16 10:02:00,68.0,60.0,29.95,ENE,77,0.0,-999.0,75,-99.99,,,-99.99,,2013-06-16 14:02:00,
2013-06-16 10:12:00,69.0,60.0,29.95,ENE,77,0.0,-999.0,74,-99.99,,,-99.99,,2013-06-16 14:12:00,
2013-06-16 10:22:00,70.0,60.0,29.95,ENE,77,0.0,-999.0,70,-99.99,,,-99.99,,2013-06-16 14:22:00,
2013-06-16 10:34:00,71.0,60.0,29.95,ENE,76,0.0,-999.0,69,-99.99,,,-99.99,,2013-06-16 14:34:00,
2013-06-16 10:43:00,71.0,59.0,29.94,East,93,0.0,-999.0,65,-99.99,,,-99.99,,2013-06-16 14:43:00,
2013-06-16 10:52:00,72.0,58.0,29.94,WNW,286,0.0,-999.0,61,-99.99,,,-99.99,,2013-06-16 14:52:00,
2013-06-16 11:02:00,74.0,58.0,29.94,NNW,337,0.0,-999.0,58,-99.99,,,-99.99,,2013-06-16 15:02:00,
2013-06-16 11:12:00,75.0,59.0,29.93,SW,233,0.0,-999.0,57,-99.99,,,-99.99,,2013-06-16 15:12:00,
2013-06-16 11:23:00,75.0,57.0,29.93,WSW,237,0.0,-999.0,54,-99.99,,,-99.99,,2013-06-16 15:23:00,
2013-06-16 11:34:00,76.0,59.0,29.92,NW,315,1.0,-999.0,56,-99.99,,,-99.99,,2013-06-16 15:34:00,
2013-06-16 11:43:00,77.0,60.0,29.92,NW,317,1.0,-999.0,55,-99.99,,,-99.99,,2013-06-16 15:43:00,
2013-06-16 12:02:00,79.0,59.0,29.91,NNW,332,0.0,-999.0,51,-99.99,,,-99.99,,2013-06-16 16:02:00,
2013-06-16 12:12:00,80.0,60.0,29.91,WNW,292,0.0,-999.0,51,-99.99,,,-99.99,,2013-06-16 16:12:00,
2013-06-16 12:23:00,79.0,60.0,29.91,WSW,241,0.0,-999.0,52,-99.99,,,-99.99,,2013-06-16 16:23:00,
2013-06-16 12:33:00,79.0,60.0,29.90,South,182,0.0,-999.0,53,-99.99,,,-99.99,,2013-06-16 16:33:00,
2013-06-16 12:43:00,78.0,63.0,29.89,WNW,285,0.0,-999.0,60,-99.99,,,-99.99,,2013-06-16 16:43:00,
2013-06-16 12:53:00,78.0,64.0,29.88,WSW,245,0.0,-999.0,62,-99.99,,,-99.99,,2013-06-16 16:53:00,
2013-06-16 13:02:00,78.0,64.0,29.88,WSW,245,0.0,-999.0,62,-99.99,,,-99.99,,2013-06-16 17:02:00,
2013-06-16 13:12:00,79.0,64.0,29.86,WSW,238,0.0,-999.0,61,-99.99,,,-99.99,,2013-06-16 17:12:00,
2013-06-16 13:22:00,79.0,63.0,29.87,West,265,0.0,-999.0,58,-99.99,,,-99.99,,2013-06-16 17:22:00,
2013-06-16 13:34:00,79.0,66.0,29.87,WSW,245,0.0,-999.0,64,-99.99,,,-99.99,,2013-06-16 17:34:00,
2013-06-16 13:43:00,79.0,63.0,29.86,WNW,285,0.0,-999.0,58,-99.99,,,-99.99,,2013-06-16 17:43:00,
2013-06-16 13:53:00,79.0,65.0,29.86,SE,124,1.0,-999.0,62,-99.99,,,-99.99,,2013-06-16 17:53:00,
2013-06-16 14:02:00,79.0,67.0,29.86,SSE,168,0.0,-999.0,66,-99.99,,,-99.99,,2013-06-16 18:02:00,
2013-06-16 14:12:00,79.0,68.0,29.86,North,9,0.0,-999.0,69,-99.99,,,-99.99,,2013-06-16 18:12:00,
2013-06-16 14:22:00,78.0,66.0,29.85,SW,232,0.0,-999.0,66,-99.99,,,-99.99,,2013-06-16 18:22:00,
2013-06-16 14:34:00,79.0,66.0,29.85,North,5,0.0,-999.0,64,-99.99,,,-99.99,,2013-06-16 18:34:00,
2013-06-16 14:43:00,79.0,64.0,29.85,ESE,120,1.0,-999.0,60,-99.99,,,-99.99,,2013-06-16 18:43:00,
2013-06-16 14:52:00,79.0,65.0,29.84,SSW,209,1.0,-999.0,62,-99.99,,,-99.99,,2013-06-16 18:52:00,
2013-06-16 15:01:00,79.0,64.0,29.85,SSE,153,0.0,-999.0,60,-99.99,,,-99.99,,2013-06-16 19:01:00,
2013-06-16 15:12:00,80.0,65.0,29.84,SSW,207,0.0,-999.0,60,-99.99,,,-99.99,,2013-06-16 19:12:00,
2013-06-16 15:22:00,80.0,65.0,29.85,WNW,282,1.0,-999.0,60,-99.99,,,-99.99,,2013-06-16 19:22:00,
2013-06-16 15:34:00,81.0,64.0,29.84,NE,55,1.0,-999.0,57,-99.99,,,-99.99,,2013-06-16 19:34:00,
2013-06-16 15:43:00,81.0,65.0,29.84,NNW,343,1.0,-999.0,59,-99.99,,,-99.99,,2013-06-16 19:43:00,
2013-06-16 15:53:00,81.0,64.0,29.84,NNW,336,1.0,-999.0,57,-99.99,,,-99.99,,2013-06-16 19:53:00,
2013-06-16 16:02:00,81.0,63.0,29.83,SW,234,1.0,-999.0,55,-99.99,,,-99.99,,2013-06-16 20:02:00,
2013-06-16 16:12:00,80.0,64.0,29.84,NNW,333,1.0,-999.0,58,-99.99,,,-99.99,,2013-06-16 20:12:00,
2013-06-16 16:22:00,81.0,66.0,29.84,NW,323,0.0,-999.0,60,-99.99,,,-99.99,,2013-06-16 20:22:00,
2013-06-16 16:33:00,80.0,65.0,29.84,SSE,155,1.0,-999.0,60,-99.99,,,-99.99,,2013-06-16 20:33:00,
2013-06-16 16:42:00,81.0,66.0,29.84,NNW,338,1.0,-999.0,61,-99.99,,,-99.99,,2013-06-16 20:42:00,
2013-06-16 16:53:00,80.0,65.0,29.84,SSW,203,2.0,-999.0,60,-99.99,,,-99.99,,2013-06-16 20:53:00,
2013-06-16 17:02:00,80.0,65.0,29.84,NW,304,1.0,-999.0,60,-99.99,,,-99.99,,2013-06-16 21:02:00,
2013-06-16 17:11:00,80.0,65.0,29.85,WNW,292,1.0,-999.0,60,-99.99,,,-99.99,,2013-06-16 21:11:00,
2013-06-16 17:22:00,80.0,65.0,29.85,NNE,15,1.0,-999.0,60,-99.99,,,-99.99,,2013-06-16 21:22:00,
2013-06-16 17:33:00,79.0,64.0,29.85,NW,321,1.0,-999.0,60,-99.99,,,-99.99,,2013-06-16 21:33:00,
2013-06-16 17:42:00,79.0,64.0,29.85,SW,226,1.0,-999.0,61,-99.99,,,-99.99,,2013-06-16 21:42:00,
2013-06-16 17:53:00,78.0,64.0,29.85,NW,314,1.0,-999.0,62,-99.99,,,-99.99,,2013-06-16 21:53:00,
2013-06-16 18:01:00,78.0,65.0,29.85,NW,325,1.0,-999.0,64,-99.99,,,-99.99,,2013-06-16 22:01:00,
2013-06-16 18:12:00,78.0,65.0,29.85,NE,46,1.0,-999.0,65,-99.99,,,-99.99,,2013-06-16 22:12:00,
2013-06-16 18:22:00,77.0,66.0,29.86,WNW,298,1.0,-999.0,69,-99.99,,,-99.99,,2013-06-16 22:22:00,
2013-06-16 18:32:00,76.0,66.0,29.86,West,262,1.0,-999.0,71,-99.99,,,-99.99,,2013-06-16 22:32:00,
2013-06-16 18:42:00,76.0,67.0,29.86,WNW,300,1.0,-999.0,74,-99.99,,,-99.99,,2013-06-16 22:42:00,
2013-06-16 18:52:00,75.0,66.0,29.85,West,278,1.0,-999.0,74,-99.99,,,-99.99,,2013-06-16 22:52:00,
2013-06-16 19:02:00,75.0,66.0,29.85,NNW,340,1.0,-999.0,74,-99.99,,,-99.99,,2013-06-16 23:02:00,
2013-06-16 19:11:00,75.0,67.0,29.85,NNW,334,1.0,-999.0,75,-99.99,,,-99.99,,2013-06-16 23:11:00,
2013-06-16 19:22:00,74.0,66.0,29.85,NW,304,0.0,-999.0,77,-99.99,,,-99.99,,2013-06-16 23:22:00,
2013-06-16 19:32:00,74.0,66.0,29.85,SSW,197,1.0,-999.0,77,-99.99,,,-99.99,,2013-06-16 23:32:00,
2013-06-16 19:42:00,74.0,66.0,29.85,West,262,1.0,-999.0,77,-99.99,,,-99.99,,2013-06-16 23:42:00,
2013-06-16 19:52:00,74.0,67.0,29.85,East,86,1.0,-999.0,78,-99.99,,,-99.99,,2013-06-16 23:52:00,
2013-06-16 20:02:00,74.0,67.0,29.85,WNW,300,1.0,-999.0,79,-99.99,,,-99.99,,2013-06-17 00:02:00,
2013-06-16 20:12:00,74.0,67.0,29.85,WSW,238,0.0,-999.0,79,-99.99,,,-99.99,,2013-06-17 00:12:00,
2013-06-16 20:22:00,74.0,67.0,29.86,NW,310,1.0,-999.0,79,-99.99,,,-99.99,,2013-06-17 00:22:00,
2013-06-16 20:32:00,73.0,66.0,29.86,West,278,1.0,-999.0,79,-99.99,,,-99.99,,2013-06-17 00:32:00,
2013-06-16 20:43:00,73.0,66.0,29.86,NNW,344,0.0,-999.0,80,-99.99,,,-99.99,,2013-06-17 00:43:00,
2013-06-16 20:52:00,73.0,67.0,29.86,West,279,1.0,-999.0,81,-99.99,,,-99.99,,2013-06-17 00:52:00,
2013-06-16 21:02:00,72.0,66.0,29.86,ESE,110,0.0,-999.0,82,-99.99,,,-99.99,,2013-06-17 01:02:00,
2013-06-16 21:12:00,72.0,66.0,29.86,NW,308,0.0,-999.0,82,-99.99,,,-99.99,,2013-06-17 01:12:00,
2013-06-16 21:22:00,72.0,67.0,29.86,North,355,0.0,-999.0,83,-99.99,,,-99.99,,2013-06-17 01:22:00,
2013-06-16 21:32:00,72.0,67.0,29.86,ESE,115,0.0,-999.0,84,-99.99,,,-99.99,,2013-06-17 01:32:00,
2013-06-16 21:43:00,71.0,66.0,29.87,NNE,22,0.0,-999.0,85,-99.99,,,-99.99,,2013-06-17 01:43:00,
2013-06-16 21:53:00,71.0,66.0,29.87,NNE,31,0.0,-999.0,85,-99.99,,,-99.99,,2013-06-17 01:53:00,
2013-06-16 22:03:00,71.0,67.0,29.88,SW,234,0.0,-999.0,86,-99.99,,,-99.99,,2013-06-17 02:03:00,
2013-06-16 22:12:00,71.0,67.0,29.88,West,279,0.0,-999.0,86,-99.99,,,-99.99,,2013-06-17 02:12:00,
2013-06-16 22:22:00,71.0,67.0,29.88,WNW,282,0.0,-999.0,87,-99.99,,,-99.99,,2013-06-17 02:22:00,
2013-06-16 22:34:00,70.0,66.0,29.88,North,350,0.0,-999.0,87,-99.99,,,-99.99,,2013-06-17 02:34:00,
2013-06-16 22:43:00,70.0,66.0,29.88,NNW,334,0.0,-999.0,87,-99.99,,,-99.99,,2013-06-17 02:43:00,
2013-06-16 22:53:00,70.0,66.0,29.88,NW,316,0.0,-999.0,87,-99.99,,,-99.99,,2013-06-17 02:53:00,
2013-06-16 23:02:00,70.0,66.0,29.88,West,271,0.0,-999.0,87,-99.99,,,-99.99,,2013-06-17 03:02:00,
2013-06-16 23:12:00,70.0,66.0,29.88,NNW,343,0.0,-999.0,87,-99.99,,,-99.99,,2013-06-17 03:12:00,
2013-06-16 23:22:00,70.0,66.0,29.88,NW,317,0.0,-999.0,87,-99.99,,,-99.99,,2013-06-17 03:22:00,
2013-06-16 23:33:00,70.0,66.0,29.88,NNW,344,0.0,-999.0,87,-99.99,,,-99.99,,2013-06-17 03:33:00,
2013-06-16 23:44:00,70.0,66.0,29.88,NNW,344,0.0,-999.0,87,-99.99,,,-99.99,,2013-06-17 03:44:00,
2013-06-16 23:53:00,70.0,66.0,29.88,NNW,342,0.0,-999.0,86,-99.99,,,-99.99,,2013-06-17 03:53:00,